Regional Weather Roundup
Issued by NWS

Home | Current Version | Previous Version | Text Only | Print | Product List | Glossary Off
Versions: 1 2 3 4 5 6 7 8 9 10 11 12 13 14 15 16 17 18 19 20 21 22 23 24 25 26 27 28 29 30 31 32 33 34 35 36 37 38 39 40 41 42 43 44 45 46 47 48 49 50

000
ASUS43 KDTX 021510
RWRMI
MICHIGAN HOURLY REGIONAL WEATHER ROUNDUP
NATIONAL WEATHER SERVICE DETROIT/PONTIAC MI
ISSUED BY NATIONAL WEATHER SERVICE GRAND RAPIDS MI
1100 AM EDT WED SEP 02 2015

NOTE: "FAIR" INDICATES FEW OR NO CLOUDS BELOW 12,000 FEET WITH NO
SIGNIFICANT WEATHER AND/OR OBSTRUCTION TO VISIBILITY.

MIZ047>049-052>055-059>063-066>070-074>076-081>083-021600-
SOUTHEAST LOWER MICHIGAN

CITY           SKY/WX    TMP DP  RH WIND       PRES   REMARKS
ADRIAN         PTSUNNY   73  70  90 SE5       30.10R FOG
ALMA           SUNNY     80  74  83 S6        30.03S
ANN ARBOR      CLOUDY    78  71  79 SW9       30.07R
BAD AXE        MOSUNNY   80  73  79 W5        30.03S
DETROIT CITY   SUNNY     81  70  69 SW6       30.05F
DETROIT        PTSUNNY   82  68  62 SW7       30.06F
FLINT          SUNNY     84  71  65 SW10      30.04S
GROSSE ILE     MOSUNNY   79  72  78 SE7       30.06S
HILLSDALE      SUNNY     81  73  77 W7        30.08F
HOWELL         MOSUNNY   78  70  76 SW6       30.06S

CITY           SKY/WX    TMP DP  RH WIND       PRES   REMARKS
JACKSON        MOSUNNY   77  71  82 W7        30.07S
LANSING        SUNNY     80  71  74 W9        30.05F
MASON          SUNNY     78  69  73 SW3       30.06S
MONROE         PTSUNNY   77  69  76 S9        30.07R
MT. CLEMENS    MOSUNNY   84  72  67 SW3       30.03F
PONTIAC        MOSUNNY   82  70  66 SW6       30.05S
PORT HOPE        N/A     81  73  76 VRB6      30.00S
PORT HURON     SUNNY     81  73  78 S5        30.04S
TRI CITIES     MOSUNNY   80  72  76 W9        30.03S
YPSILANTI      CLOUDY    83  70  64 SW7       30.07R
$$
MIZ043>046-050>051-056>058-064>065-071>073-077>080-021600-
SOUTHWEST LOWER MICHIGAN

CITY           SKY/WX    TMP DP  RH WIND       PRES   REMARKS
BATTLE CREEK   MOSUNNY   82  71  69 W8        30.07S
BENTON HARBOR  MOSUNNY   80  70  71 W8        30.07S
BIG RAPIDS     CLOUDY    78  73  86 CALM      30.03S
COLDWATER      SUNNY     80  71  74 SW7       30.08F
HOLLAND        SUNNY     81  71  71 SW12      30.06S
GRAND RAPIDS   MOSUNNY   81  71  71 W9        30.05S
KALAMAZOO      SUNNY     82  70  66 W8        30.07S
MARSHALL       MOSUNNY   81  71  73 SW7       30.07S
MOUNT PLEASANT MOSUNNY   81  73  77 CALM      30.01F
MUSKEGON       MOSUNNY   79  69  71 SW7       30.04S
STURGIS        SUNNY     79  72  78 W7        30.08S
$$
MIZ016>042-021600-
NORTHERN LOWER MICHIGAN

CITY           SKY/WX    TMP DP  RH WIND       PRES   REMARKS
ALPENA         SUNNY     83  72  69 CALM      29.99F
BEAVER ISLAND  MOSUNNY   76  69  79 CALM      29.98S
BELLAIRE       MOSUNNY   79  71  75 S3        29.99S
CADILLAC       CLOUDY    73  72  96 SW5       30.03S FOG
CHARLEVOIX     MOSUNNY   79  72  79 W8        30.01F
GAYLORD        MOSUNNY   79  72  79 W3        30.02S
HOUGHTON LAKE  CLOUDY    75  71  87 SW5       30.03S FOG
MANISTEE       MOSUNNY   79  72  78 W6        30.00F
OSCODA         SUNNY     81  72  75 CALM      29.99S
PELLSTON       PTSUNNY   80  71  74 CALM      29.99S
TRAVERSE CITY  PTSUNNY   82  72  71 VRB3      29.97F
LUDINGTON      SUNNY     78  73  84 W3        30.01F
$$
MIZ007>008-015-021600-
EASTERN UPPER MICHIGAN

CITY           SKY/WX    TMP DP  RH WIND       PRES   REMARKS
KINROSS        CLOUDY    72  72 100 CALM      30.00R
MACKINAC ISLAN CLOUDY    73  70  89 W5        29.99S FOG
NEWBERRY       CLOUDY    69  69  99 NE5       29.99S FOG
S. S. MARIE    CLOUDY    73  68  84 CALM      29.98S HAZE
$$
MIZ004>006-011>014-085-021600-
CENTRAL UPPER MICHIGAN

CITY           SKY/WX    TMP DP  RH WIND       PRES   REMARKS
MANISTIQUE     PTSUNNY   74  68  83 E3        29.98S
ESCANABA       PTSUNNY   75  68  78 E3        29.97S
MENOMINEE      PTSUNNY   79  70  73 S3        29.96S
$$
MIZ001>003-009>011-084-021600-
WESTERN UPPER MICHIGAN

CITY           SKY/WX    TMP DP  RH WIND       PRES   REMARKS
IRON MOUNTAIN  TSTM      70  69  97 CALM      29.97S VSB 1
HOUGHTON       LGT RAIN  64  63  96 CALM      30.03R VSB<1/4
IRONWOOD       CLOUDY    66  66 100 N3        30.01R
$$

ABBREVIATIONS USED IN REMARKS
   TC - TEMPERATURE IN CELSIUS
  WCI - WIND CHILL INDEX
   HX - HEAT INDEX
  VSB - VISIBILITY




USA.gov is the U.S. government's official web portal to all federal, state and local government web resources and services.